loading
|

STARLINK-11188, 60722

Orbit data source: Space-Track

STARLINK-11188, 60722 is a payload satellite owned by SpaceX/Seattle (US) in LEO that was launched on Wed, 28 Aug 2024 UTC via an FALCON 9 launch vehicle from the Air Force Eastern Test Range (AFETR). Payloads include a variety of satellites, spacecraft, and rockets equipped with specific instruments for various scientific and technological missions. These include communications satellites like Starlink; space stations such as the ISS; scientific satellites like the Hubble; Earth observation satellites from companies like Planet Labs, Umbra, and HawkEye 360; GPS; miniature CubeSats for education and research; and military/defense satellites.

Loading next visibility...
Next conjunction unknown
Loading greatness...
STARLINK-11188 details
Identifier
60722, 2024-152C
Orbit
LEO
Last TLE update4 hours ago
Origin
Flag of USSpaceX/Seattle (US)
ManufacturerSpaceX/Seattle
MissionOperational spacecraft
Bus & MotorSTARLINK V2M, Unknown motor
Mass750 kg wet, ~700 kg dry
Launch date (UTC)
2024-08-28 (2 months ago)
Launch vehicle
FALCON 9
Launch site
Air Force Eastern Test Range (AFETR)
Object type
Payload
Rocket body
Debris
Shape & HBRUnknown
Radar Cross SectionLarge (>1 m²)

Expand to show TLE details & history

TLE from 4 hours ago
0 STARLINK-11188
1 60722U 24152C   24288.49715634  .00002172  00000-0  22797-4 0  9997
2 60722  53.1574 116.4543 0002337  89.3391 270.7894 15.69709275  8664
Epoch: 2024-10-14T11:55Z
Definitive object data (Epoch: 2024-10-14T11:55:54.307Z)
Latitude-0.00009°
Longitude-86.04549°
Altitude360.622 km
Speed7.694 km/s
True Right ascension07h 45m 49s
True Declination0° 00' 00"
Sunlit
Object was in daylight at TLE epoch
Predictive object data (real-time)
Latitude26.64433°
Longitude71.24835°
Altitude360.052 km
Speed7.697 km/s
Apparent Right ascension19h 59m 28s
Apparent Declination-6° 23' 06"
Sunlit
Object is in daylight
Predictive observer data (real-time)
Local Sidereal Time10:10:38
Azimuth50.056° ENE
Elevation-45.407°
Doppler factor1
Orbital elements
Apogee361.565 km
Perigee358.415 km
Semi-major axis6,738.127 km
Eccentricity0.0002337
Inclination53.1574°
RAAN116.4543°
Arg. of periapsis89.3391°
True anomaly270.76262°
Mean anomaly270.7894°
Eccentric anomaly270.77601°
Mean motion3.92405 °/min
BSTAR0.000022797
Period91.74 mins
No data available

STARLINK-11188 Visibility forecast

Observer location: 39.9160978°, -105.1181434

Span
Click to sort rows by Start time (UTC) header in descending order
Start Az.
Max El. time (UTC)
Max El. Az.
Max El.
End time (UTC)
End Az.
4 mins2024-10-14 16:45:25.391Z287.855° WNW2024-10-14 16:47:25.391Z341.391° N19.565°2024-10-14 16:49:25.391Z23.856° NE